Year,Month,Day,Hour,Minute,Value (Times are PST for insolation in W/m^2)
2011,08,14,00,00,0.00
2011,08,14,00,01,0.00
2011,08,14,00,02,0.00
2011,08,14,00,03,0.00
2011,08,14,00,04,0.00
2011,08,14,00,05,0.00
2011,08,14,00,06,0.00
2011,08,14,00,07,0.00
2011,08,14,00,08,0.00
2011,08,14,00,09,0.00
2011,08,14,00,10,0.00
2011,08,14,00,11,0.00
2011,08,14,00,12,0.00
2011,08,14,00,13,0.00
2011,08,14,00,14,0.00
2011,08,14,00,15,0.00
2011,08,14,00,16,0.00
2011,08,14,00,17,0.00
2011,08,14,00,18,0.00
2011,08,14,00,19,0.00
2011,08,14,00,20,0.00
2011,08,14,00,21,0.00
2011,08,14,00,22,0.00
2011,08,14,00,23,0.00
2011,08,14,00,24,0.00
2011,08,14,00,25,0.00
2011,08,14,00,26,0.00
2011,08,14,00,27,0.00
2011,08,14,00,28,0.00
2011,08,14,00,29,0.00
2011,08,14,00,30,0.00
2011,08,14,00,31,0.00
2011,08,14,00,32,0.00
2011,08,14,00,33,0.00
2011,08,14,00,34,0.00
2011,08,14,00,35,0.00
2011,08,14,00,36,0.00
2011,08,14,00,37,0.00
2011,08,14,00,38,0.00
2011,08,14,00,39,0.00
2011,08,14,00,40,0.00
2011,08,14,00,41,0.00
2011,08,14,00,42,0.00
2011,08,14,00,43,0.00
2011,08,14,00,44,0.00
2011,08,14,00,45,0.00
2011,08,14,00,46,0.00
2011,08,14,00,47,0.00
2011,08,14,00,48,0.00
2011,08,14,00,49,0.00
2011,08,14,00,50,0.00
2011,08,14,00,51,0.00
2011,08,14,00,52,0.00
2011,08,14,00,53,0.00
2011,08,14,00,54,0.00
2011,08,14,00,55,0.00
2011,08,14,00,56,0.00
2011,08,14,00,57,0.00
2011,08,14,00,58,0.00
2011,08,14,00,59,0.00
2011,08,14,01,00,0.00
2011,08,14,01,01,0.00
2011,08,14,01,02,0.00
2011,08,14,01,03,0.00
2011,08,14,01,04,0.00
2011,08,14,01,05,0.00
2011,08,14,01,06,0.00
2011,08,14,01,07,0.00
2011,08,14,01,08,0.00
2011,08,14,01,09,0.00
2011,08,14,01,10,0.00
2011,08,14,01,11,0.00
2011,08,14,01,12,0.00
2011,08,14,01,13,0.00
2011,08,14,01,14,0.00
2011,08,14,01,15,0.00
2011,08,14,01,16,0.00
2011,08,14,01,17,0.00
2011,08,14,01,18,0.00
2011,08,14,01,19,0.00
2011,08,14,01,20,0.00
2011,08,14,01,21,0.00
2011,08,14,01,22,0.00
2011,08,14,01,23,0.00
2011,08,14,01,24,0.00
2011,08,14,01,25,0.00
2011,08,14,01,26,0.00
2011,08,14,01,27,0.00
2011,08,14,01,28,0.00
2011,08,14,01,29,0.00
2011,08,14,01,30,0.00
2011,08,14,01,31,0.00
2011,08,14,01,32,0.00
2011,08,14,01,33,0.00
2011,08,14,01,34,0.00
2011,08,14,01,35,0.00
2011,08,14,01,36,0.00
2011,08,14,01,37,0.00
2011,08,14,01,38,0.00
2011,08,14,01,39,0.00
2011,08,14,01,40,0.00
2011,08,14,01,41,0.00
2011,08,14,01,42,0.00
2011,08,14,01,43,0.00
2011,08,14,01,44,0.00
2011,08,14,01,45,0.00
2011,08,14,01,46,0.00
2011,08,14,01,47,0.00
2011,08,14,01,48,0.00
2011,08,14,01,49,0.00
2011,08,14,01,50,0.00
2011,08,14,01,51,0.00
2011,08,14,01,52,0.00
2011,08,14,01,53,0.00
2011,08,14,01,54,0.00
2011,08,14,01,55,0.00
2011,08,14,01,56,0.00
2011,08,14,01,57,0.00
2011,08,14,01,58,0.00
2011,08,14,01,59,0.00
2011,08,14,02,00,0.00
2011,08,14,02,01,0.00
2011,08,14,02,02,0.00
2011,08,14,02,03,0.00
2011,08,14,02,04,0.00
2011,08,14,02,05,0.00
2011,08,14,02,06,0.00
2011,08,14,02,07,0.00
2011,08,14,02,08,0.00
2011,08,14,02,09,0.00
2011,08,14,02,10,0.00
2011,08,14,02,11,0.00
2011,08,14,02,12,0.00
2011,08,14,02,13,0.00
2011,08,14,02,14,0.00
2011,08,14,02,15,0.00
2011,08,14,02,16,0.00
2011,08,14,02,17,0.00
2011,08,14,02,18,0.00
2011,08,14,02,19,0.00
2011,08,14,02,20,0.00
2011,08,14,02,21,0.00
2011,08,14,02,22,0.00
2011,08,14,02,23,0.00
2011,08,14,02,24,0.00
2011,08,14,02,25,0.00
2011,08,14,02,26,0.00
2011,08,14,02,27,0.00
2011,08,14,02,28,0.00
2011,08,14,02,29,0.00
2011,08,14,02,30,0.00
2011,08,14,02,31,0.00
2011,08,14,02,32,0.00
2011,08,14,02,33,0.00
2011,08,14,02,34,0.00
2011,08,14,02,35,0.00
2011,08,14,02,36,0.00
2011,08,14,02,37,0.00
2011,08,14,02,38,0.00
2011,08,14,02,39,0.00
2011,08,14,02,40,0.00
2011,08,14,02,41,0.00
2011,08,14,02,42,0.00
2011,08,14,02,43,0.00
2011,08,14,02,44,0.00
2011,08,14,02,45,0.00
2011,08,14,02,46,0.00
2011,08,14,02,47,0.00
2011,08,14,02,48,0.00
2011,08,14,02,49,0.00
2011,08,14,02,50,0.00
2011,08,14,02,51,0.00
2011,08,14,02,52,0.00
2011,08,14,02,53,0.00
2011,08,14,02,54,0.00
2011,08,14,02,55,0.00
2011,08,14,02,56,0.00
2011,08,14,02,57,0.00
2011,08,14,02,58,0.00
2011,08,14,02,59,0.00
2011,08,14,03,00,0.00
2011,08,14,03,01,0.00
2011,08,14,03,02,0.00
2011,08,14,03,03,0.00
2011,08,14,03,04,0.00
2011,08,14,03,05,0.00
2011,08,14,03,06,0.00
2011,08,14,03,07,0.00
2011,08,14,03,08,0.00
2011,08,14,03,09,0.00
2011,08,14,03,10,0.00
2011,08,14,03,11,0.00
2011,08,14,03,12,0.00
2011,08,14,03,13,0.00
2011,08,14,03,14,0.00
2011,08,14,03,15,0.00
2011,08,14,03,16,0.00
2011,08,14,03,17,0.00
2011,08,14,03,18,0.00
2011,08,14,03,19,0.00
2011,08,14,03,20,0.00
2011,08,14,03,21,0.00
2011,08,14,03,22,0.00
2011,08,14,03,23,0.00
2011,08,14,03,24,0.00
2011,08,14,03,25,0.00
2011,08,14,03,26,0.00
2011,08,14,03,27,0.00
2011,08,14,03,28,0.00
2011,08,14,03,29,0.00
2011,08,14,03,30,0.00
2011,08,14,03,31,0.00
2011,08,14,03,32,0.00
2011,08,14,03,33,0.00
2011,08,14,03,34,0.00
2011,08,14,03,35,0.00
2011,08,14,03,36,0.00
2011,08,14,03,37,0.00
2011,08,14,03,38,0.00
2011,08,14,03,39,0.00
2011,08,14,03,40,0.00
2011,08,14,03,41,0.00
2011,08,14,03,42,0.00
2011,08,14,03,43,0.00
2011,08,14,03,44,0.00
2011,08,14,03,45,0.00
2011,08,14,03,46,0.00
2011,08,14,03,47,0.00
2011,08,14,03,48,0.00
2011,08,14,03,49,0.00
2011,08,14,03,50,0.00
2011,08,14,03,51,0.00
2011,08,14,03,52,0.00
2011,08,14,03,53,0.00
2011,08,14,03,54,0.00
2011,08,14,03,55,0.00
2011,08,14,03,56,0.00
2011,08,14,03,57,0.00
2011,08,14,03,58,0.00
2011,08,14,03,59,0.00
2011,08,14,04,00,0.00
2011,08,14,04,01,0.00
2011,08,14,04,02,0.00
2011,08,14,04,04,0.00
2011,08,14,04,05,0.00
2011,08,14,04,06,0.00
2011,08,14,04,07,0.00
2011,08,14,04,08,0.00
2011,08,14,04,09,0.00
2011,08,14,04,10,0.00
2011,08,14,04,11,0.00
2011,08,14,04,12,0.00
2011,08,14,04,13,0.00
2011,08,14,04,14,0.00
2011,08,14,04,15,0.00
2011,08,14,04,16,0.00
2011,08,14,04,17,0.00
2011,08,14,04,18,0.00
2011,08,14,04,19,0.00
2011,08,14,04,20,0.00
2011,08,14,04,21,0.00
2011,08,14,04,22,0.00
2011,08,14,04,23,0.00
2011,08,14,04,24,0.00
2011,08,14,04,25,0.00
2011,08,14,04,26,0.00
2011,08,14,04,27,0.00
2011,08,14,04,28,0.00
2011,08,14,04,29,0.00
2011,08,14,04,30,0.00
2011,08,14,04,31,0.00
2011,08,14,04,32,0.00
2011,08,14,04,33,0.00
2011,08,14,04,34,0.00
2011,08,14,04,35,0.00
2011,08,14,04,36,0.00
2011,08,14,04,37,0.00
2011,08,14,04,38,0.00
2011,08,14,04,39,0.00
2011,08,14,04,40,0.00
2011,08,14,04,41,0.00
2011,08,14,04,42,0.00
2011,08,14,04,43,0.00
2011,08,14,04,44,0.00
2011,08,14,04,45,0.00
2011,08,14,04,46,0.00
2011,08,14,04,47,0.00
2011,08,14,04,48,0.00
2011,08,14,04,49,0.00
2011,08,14,04,50,0.00
2011,08,14,04,51,0.00
2011,08,14,04,52,0.00
2011,08,14,04,53,0.00
2011,08,14,04,54,0.00
2011,08,14,04,55,0.00
2011,08,14,04,56,0.00
2011,08,14,04,57,0.00
2011,08,14,04,58,0.00
2011,08,14,04,59,0.00
2011,08,14,05,00,0.00
2011,08,14,05,01,0.00
2011,08,14,05,02,0.00
2011,08,14,05,03,0.00
2011,08,14,05,04,0.00
2011,08,14,05,05,0.00
2011,08,14,05,06,0.00
2011,08,14,05,07,0.00
2011,08,14,05,08,0.00
2011,08,14,05,09,0.00
2011,08,14,05,10,0.00
2011,08,14,05,11,0.00
2011,08,14,05,12,0.00
2011,08,14,05,13,0.00
2011,08,14,05,14,0.00
2011,08,14,05,15,0.00
2011,08,14,05,16,0.00
2011,08,14,05,17,0.00
2011,08,14,05,18,0.00
2011,08,14,05,19,0.00
2011,08,14,05,20,0.00
2011,08,14,05,21,0.00
2011,08,14,05,22,0.00
2011,08,14,05,23,0.00
2011,08,14,05,24,0.00
2011,08,14,05,25,0.00
2011,08,14,05,26,0.00
2011,08,14,05,27,0.00
2011,08,14,05,28,0.00
2011,08,14,05,29,0.00
2011,08,14,05,30,0.00
2011,08,14,05,31,0.00
2011,08,14,05,32,0.00
2011,08,14,05,33,0.00
2011,08,14,05,34,0.00
2011,08,14,05,35,0.00
2011,08,14,05,36,0.00
2011,08,14,05,37,0.00
2011,08,14,05,38,0.00
2011,08,14,05,39,0.00
2011,08,14,05,40,0.00
2011,08,14,05,41,0.00
2011,08,14,05,42,0.00
2011,08,14,05,43,0.00
2011,08,14,05,44,0.00
2011,08,14,05,45,0.00
2011,08,14,05,46,0.00
2011,08,14,05,47,0.00
2011,08,14,05,48,0.00
2011,08,14,05,49,0.00
2011,08,14,05,50,0.00
2011,08,14,05,51,0.00
2011,08,14,05,52,0.00
2011,08,14,05,53,0.00
2011,08,14,05,54,0.00
2011,08,14,05,55,0.00
2011,08,14,05,56,0.00
2011,08,14,05,57,0.00
2011,08,14,05,58,0.00
2011,08,14,05,59,0.00
2011,08,14,06,00,0.00
2011,08,14,06,01,0.00
2011,08,14,06,02,0.00
2011,08,14,06,03,0.00
2011,08,14,06,04,0.00
2011,08,14,06,05,0.00
2011,08,14,06,06,0.00
2011,08,14,06,07,0.00
2011,08,14,06,08,0.00
2011,08,14,06,09,0.00
2011,08,14,06,10,0.00
2011,08,14,06,11,0.00
2011,08,14,06,12,0.00
2011,08,14,06,13,0.00
2011,08,14,06,14,0.00
2011,08,14,06,15,1.20
2011,08,14,06,16,5.00
2011,08,14,06,17,5.00
2011,08,14,06,18,5.00
2011,08,14,06,19,5.00
2011,08,14,06,20,5.00
2011,08,14,06,21,5.00
2011,08,14,06,22,5.00
2011,08,14,06,23,5.00
2011,08,14,06,24,5.00
2011,08,14,06,25,5.00
2011,08,14,06,26,5.20
2011,08,14,06,27,7.00
2011,08,14,06,28,7.00
2011,08,14,06,29,7.00
2011,08,14,06,30,7.00
2011,08,14,06,31,7.00
2011,08,14,06,32,8.90
2011,08,14,06,33,9.00
2011,08,14,06,34,9.00
2011,08,14,06,35,10.20
2011,08,14,06,36,11.00
2011,08,14,06,37,11.00
2011,08,14,06,38,11.20
2011,08,14,06,39,12.00
2011,08,14,06,40,12.00
2011,08,14,06,41,12.00
2011,08,14,06,42,13.50
2011,08,14,06,43,15.80
2011,08,14,06,44,16.30
2011,08,14,06,45,18.40
2011,08,14,06,46,19.90
2011,08,14,06,47,22.20
2011,08,14,06,48,24.50
2011,08,14,06,49,27.90
2011,08,14,06,50,30.40
2011,08,14,06,51,32.30
2011,08,14,06,52,34.10
2011,08,14,06,53,36.30
2011,08,14,06,54,37.00
2011,08,14,06,55,37.10
2011,08,14,06,56,39.00
2011,08,14,06,57,39.00
2011,08,14,06,58,39.00
2011,08,14,06,59,39.00
2011,08,14,07,00,39.00
2011,08,14,07,01,40.00
2011,08,14,07,02,40.50
2011,08,14,07,03,42.00
2011,08,14,07,04,44.20
2011,08,14,07,05,46.70
2011,08,14,07,06,47.00
2011,08,14,07,07,49.20
2011,08,14,07,08,51.00
2011,08,14,07,09,51.80
2011,08,14,07,10,53.00
2011,08,14,07,11,53.70
2011,08,14,07,12,54.00
2011,08,14,07,13,56.50
2011,08,14,07,14,60.90
2011,08,14,07,15,65.80
2011,08,14,07,16,72.00
2011,08,14,07,17,75.50
2011,08,14,07,18,80.80
2011,08,14,07,19,87.10
2011,08,14,07,20,96.20
2011,08,14,07,21,102.00
2011,08,14,07,22,99.60
2011,08,14,07,23,98.00
2011,08,14,07,24,95.10
2011,08,14,07,25,88.60
2011,08,14,07,26,80.80
2011,08,14,07,27,74.00
2011,08,14,07,28,70.70
2011,08,14,07,29,70.00
2011,08,14,07,30,69.10
2011,08,14,07,31,69.00
2011,08,14,07,32,69.00
2011,08,14,07,33,67.00
2011,08,14,07,34,63.70
2011,08,14,07,35,62.20
2011,08,14,07,36,62.00
2011,08,14,07,37,62.00
2011,08,14,07,38,62.00
2011,08,14,07,39,62.50
2011,08,14,07,40,64.30
2011,08,14,07,41,66.60
2011,08,14,07,42,67.30
2011,08,14,07,43,69.30
2011,08,14,07,44,70.00
2011,08,14,07,45,70.00
2011,08,14,07,46,69.30
2011,08,14,07,47,69.00
2011,08,14,07,48,64.70
2011,08,14,07,49,63.50
2011,08,14,07,50,65.90
2011,08,14,07,51,68.10
2011,08,14,07,52,72.70
2011,08,14,07,53,74.00
2011,08,14,07,54,76.80
2011,08,14,07,55,78.20
2011,08,14,07,56,82.30
2011,08,14,07,57,85.20
2011,08,14,07,58,86.00
2011,08,14,07,59,88.10
2011,08,14,08,00,93.60
2011,08,14,08,01,98.10
2011,08,14,08,02,100.00
2011,08,14,08,03,100.00
2011,08,14,08,04,101.60
2011,08,14,08,05,104.70
2011,08,14,08,06,105.90
2011,08,14,08,07,111.00
2011,08,14,08,08,111.00
2011,08,14,08,09,116.80
2011,08,14,08,10,125.50
2011,08,14,08,11,134.80
2011,08,14,08,12,146.00
2011,08,14,08,13,154.10
2011,08,14,08,14,174.00
2011,08,14,08,15,181.70
2011,08,14,08,16,184.60
2011,08,14,08,17,186.50
2011,08,14,08,18,192.80
2011,08,14,08,19,196.50
2011,08,14,08,20,198.00
2011,08,14,08,21,195.60
2011,08,14,08,22,199.00
2011,08,14,08,23,197.20
2011,08,14,08,24,199.50
2011,08,14,08,25,209.40
2011,08,14,08,26,211.90
2011,08,14,08,27,203.90
2011,08,14,08,28,193.20
2011,08,14,08,29,187.70
2011,08,14,08,30,185.00
2011,08,14,08,31,186.30
2011,08,14,08,32,190.20
2011,08,14,08,33,192.00
2011,08,14,08,34,192.00
2011,08,14,08,35,187.70
2011,08,14,08,36,185.00
2011,08,14,08,37,185.00
2011,08,14,08,38,183.80
2011,08,14,08,39,179.30
2011,08,14,08,40,172.40
2011,08,14,08,41,167.20
2011,08,14,08,42,157.80
2011,08,14,08,43,150.80
2011,08,14,08,44,146.80
2011,08,14,08,45,144.50
2011,08,14,08,46,144.10
2011,08,14,08,47,146.30
2011,08,14,08,48,148.30
2011,08,14,08,49,149.00
2011,08,14,08,50,149.00
2011,08,14,08,51,149.00
2011,08,14,08,52,147.90
2011,08,14,08,53,145.60
2011,08,14,08,54,144.00
2011,08,14,08,55,143.10
2011,08,14,08,56,142.00
2011,08,14,08,57,142.00
2011,08,14,08,58,144.00
2011,08,14,08,59,146.60
2011,08,14,09,00,150.40
2011,08,14,09,01,154.50
2011,08,14,09,02,156.00
2011,08,14,09,03,164.80
2011,08,14,09,04,174.20
2011,08,14,09,05,181.20
2011,08,14,09,06,188.00
2011,08,14,09,07,197.90
2011,08,14,09,08,211.50
2011,08,14,09,09,214.00
2011,08,14,09,10,223.50
2011,08,14,09,11,321.20
2011,08,14,09,12,361.80
2011,08,14,09,13,372.20
2011,08,14,09,14,383.60
2011,08,14,09,15,380.90
2011,08,14,09,16,375.70
2011,08,14,09,17,375.40
2011,08,14,09,18,338.10
2011,08,14,09,19,345.50
2011,08,14,09,20,345.20
2011,08,14,09,21,419.50
2011,08,14,09,22,413.10
2011,08,14,09,23,425.00
2011,08,14,09,24,425.00
2011,08,14,09,25,425.00
2011,08,14,09,26,400.70
2011,08,14,09,27,373.90
2011,08,14,09,28,382.40
2011,08,14,09,29,355.20
2011,08,14,09,30,345.50
2011,08,14,09,31,343.20
2011,08,14,09,32,335.00
2011,08,14,09,33,335.10
2011,08,14,09,34,351.90
2011,08,14,09,35,364.00
2011,08,14,09,36,330.50
2011,08,14,09,37,323.00
2011,08,14,09,38,357.70
2011,08,14,09,39,311.00
2011,08,14,09,40,268.10
2011,08,14,09,41,253.90
2011,08,14,09,42,245.90
2011,08,14,09,43,238.80
2011,08,14,09,44,231.20
2011,08,14,09,45,227.40
2011,08,14,09,46,212.50
2011,08,14,09,47,208.90
2011,08,14,09,48,203.80
2011,08,14,09,49,204.70
2011,08,14,09,50,206.90
2011,08,14,09,51,202.20
2011,08,14,09,52,204.50
2011,08,14,09,53,207.20
2011,08,14,09,54,209.00
2011,08,14,09,55,206.90
2011,08,14,09,56,206.80
2011,08,14,09,57,198.90
2011,08,14,09,58,189.80
2011,08,14,09,59,179.60
2011,08,14,10,00,176.90
2011,08,14,10,01,178.10
2011,08,14,10,02,193.30
2011,08,14,10,03,236.00
2011,08,14,10,04,261.90
2011,08,14,10,05,317.10
2011,08,14,10,06,316.00
2011,08,14,10,07,310.00
2011,08,14,10,08,389.40
2011,08,14,10,09,427.60
2011,08,14,10,10,390.50
2011,08,14,10,11,408.50
2011,08,14,10,12,388.50
2011,08,14,10,13,362.00
2011,08,14,10,14,498.60
2011,08,14,10,15,450.80
2011,08,14,10,16,511.00
2011,08,14,10,17,553.00
2011,08,14,10,18,544.00
2011,08,14,10,19,551.00
2011,08,14,10,20,545.40
2011,08,14,10,21,555.00
2011,08,14,10,22,555.00
2011,08,14,10,23,555.00
2011,08,14,10,24,575.80
2011,08,14,10,25,575.10
2011,08,14,10,26,611.00
2011,08,14,10,27,591.80
2011,08,14,10,28,611.80
2011,08,14,10,29,663.50
2011,08,14,10,30,693.80
2011,08,14,10,31,705.00
2011,08,14,10,32,705.00
2011,08,14,10,33,693.00
2011,08,14,10,34,693.00
2011,08,14,10,35,730.50
2011,08,14,10,36,733.10
2011,08,14,10,37,677.10
2011,08,14,10,38,720.20
2011,08,14,10,39,652.70
2011,08,14,10,40,638.00
2011,08,14,10,41,721.40
2011,08,14,10,42,778.50
2011,08,14,10,43,770.50
2011,08,14,10,44,616.60
2011,08,14,10,45,652.00
2011,08,14,10,46,698.90
2011,08,14,10,47,751.00
2011,08,14,10,48,751.00
2011,08,14,10,49,673.20
2011,08,14,10,50,641.20
2011,08,14,10,51,566.10
2011,08,14,10,52,624.00
2011,08,14,10,53,652.00
2011,08,14,10,54,549.20
2011,08,14,10,55,610.00
2011,08,14,10,56,581.70
2011,08,14,10,57,482.20
2011,08,14,10,58,529.00
2011,08,14,10,59,523.20
2011,08,14,11,00,562.40
2011,08,14,11,01,609.20
2011,08,14,11,02,644.10
2011,08,14,11,03,662.10
2011,08,14,11,04,607.50
2011,08,14,11,05,594.00
2011,08,14,11,06,506.80
2011,08,14,11,07,421.10
2011,08,14,11,08,428.20
2011,08,14,11,09,398.20
2011,08,14,11,10,392.30
2011,08,14,11,11,387.30
2011,08,14,11,12,418.20
2011,08,14,11,13,397.50
2011,08,14,11,14,381.00
2011,08,14,11,15,389.40
2011,08,14,11,16,398.80
2011,08,14,11,17,399.80
2011,08,14,11,18,419.80
2011,08,14,11,19,424.00
2011,08,14,11,20,424.00
2011,08,14,11,21,469.00
2011,08,14,11,22,474.20
2011,08,14,11,23,405.80
2011,08,14,11,24,351.00
2011,08,14,11,25,325.00
2011,08,14,11,26,326.50
2011,08,14,11,27,352.70
2011,08,14,11,28,432.60
2011,08,14,11,29,516.20
2011,08,14,11,30,516.80
2011,08,14,11,31,515.00
2011,08,14,11,32,515.00
2011,08,14,11,33,515.00
2011,08,14,11,34,515.00
2011,08,14,11,35,463.70
2011,08,14,11,36,414.90
2011,08,14,11,37,423.50
2011,08,14,11,38,470.60
2011,08,14,11,39,514.00
2011,08,14,11,40,477.80
2011,08,14,11,41,409.00
2011,08,14,11,42,444.60
2011,08,14,11,43,455.00
2011,08,14,11,44,491.00
2011,08,14,11,45,513.50
2011,08,14,11,46,482.00
2011,08,14,11,47,482.00
2011,08,14,11,48,515.50
2011,08,14,11,49,818.00
2011,08,14,11,50,876.00
2011,08,14,11,51,834.10
2011,08,14,11,52,829.50
2011,08,14,11,53,813.20
2011,08,14,11,54,807.20
2011,08,14,11,55,825.80
2011,08,14,11,56,842.80
2011,08,14,11,57,797.50
2011,08,14,11,58,768.00
2011,08,14,11,59,506.10
2011,08,14,12,00,473.00
2011,08,14,12,01,480.60
2011,08,14,12,02,497.00
2011,08,14,12,03,497.00
2011,08,14,12,04,497.00
2011,08,14,12,05,493.20
2011,08,14,12,06,426.70
2011,08,14,12,07,452.00
2011,08,14,12,08,452.00
2011,08,14,12,09,452.00
2011,08,14,12,10,854.60
2011,08,14,12,11,1000.70
2011,08,14,12,12,1005.00
2011,08,14,12,13,1005.00
2011,08,14,12,14,1005.00
2011,08,14,12,15,1005.00
2011,08,14,12,16,840.80
2011,08,14,12,17,867.90
2011,08,14,12,18,877.00
2011,08,14,12,19,877.00
2011,08,14,12,20,877.00
2011,08,14,12,21,877.00
2011,08,14,12,22,877.00
2011,08,14,12,23,694.20
2011,08,14,12,24,793.80
2011,08,14,12,25,1123.00
2011,08,14,12,26,1123.00
2011,08,14,12,27,1123.00
2011,08,14,12,28,1123.00
2011,08,14,12,29,1007.00
2011,08,14,12,30,1007.00
2011,08,14,12,31,1007.00
2011,08,14,12,32,1007.00
2011,08,14,12,33,831.30
2011,08,14,12,34,756.00
2011,08,14,12,35,670.70
2011,08,14,12,36,604.10
2011,08,14,12,37,678.80
2011,08,14,12,38,672.50
2011,08,14,12,39,654.00
2011,08,14,12,40,740.70
2011,08,14,12,41,708.00
2011,08,14,12,42,708.00
2011,08,14,12,43,708.00
2011,08,14,12,44,711.50
2011,08,14,12,45,714.00
2011,08,14,12,46,913.50
2011,08,14,12,47,937.00
2011,08,14,12,48,937.00
2011,08,14,12,49,937.00
2011,08,14,12,50,976.80
2011,08,14,12,51,1015.80
2011,08,14,12,52,1021.00
2011,08,14,12,53,1021.00
2011,08,14,12,54,1034.30
2011,08,14,12,55,1053.60
2011,08,14,12,56,1042.00
2011,08,14,12,57,1042.00
2011,08,14,12,58,1042.00
2011,08,14,12,59,1042.00
2011,08,14,13,00,1042.00
2011,08,14,13,01,1042.00
2011,08,14,13,02,1042.00
2011,08,14,13,03,1042.00
2011,08,14,13,04,1042.00
2011,08,14,13,05,1021.00
2011,08,14,13,06,929.00
2011,08,14,13,07,949.00
2011,08,14,13,08,985.20
2011,08,14,13,09,981.00
2011,08,14,13,10,1011.00
2011,08,14,13,11,1011.00
2011,08,14,13,12,1011.00
2011,08,14,13,13,1011.00
2011,08,14,13,14,668.20
2011,08,14,13,15,471.60
2011,08,14,13,16,518.70
2011,08,14,13,17,522.60
2011,08,14,13,18,485.00
2011,08,14,13,19,485.00
2011,08,14,13,20,485.00
2011,08,14,13,21,485.00
2011,08,14,13,22,532.20
2011,08,14,13,23,800.00
2011,08,14,13,24,800.00
2011,08,14,13,25,867.20
2011,08,14,13,26,912.00
2011,08,14,13,27,912.00
2011,08,14,13,28,857.70
2011,08,14,13,29,572.70
2011,08,14,13,30,622.00
2011,08,14,13,31,521.80
2011,08,14,13,32,503.80
2011,08,14,13,33,499.30
2011,08,14,13,34,497.00
2011,08,14,13,35,497.00
2011,08,14,13,36,564.00
2011,08,14,13,37,631.00
2011,08,14,13,38,631.00
2011,08,14,13,39,429.20
2011,08,14,13,40,428.00
2011,08,14,13,41,455.00
2011,08,14,13,42,410.50
2011,08,14,13,43,392.00
2011,08,14,13,44,395.90
2011,08,14,13,45,425.50
2011,08,14,13,46,492.30
2011,08,14,13,47,452.00
2011,08,14,13,48,452.00
2011,08,14,13,49,452.00
2011,08,14,13,50,879.80
2011,08,14,13,51,960.00
2011,08,14,13,52,960.00
2011,08,14,13,53,960.00
2011,08,14,13,54,624.20
2011,08,14,13,55,336.70
2011,08,14,13,56,381.20
2011,08,14,13,57,435.20
2011,08,14,13,58,540.00
2011,08,14,13,59,594.00
2011,08,14,14,00,955.80
2011,08,14,14,01,1152.80
2011,08,14,14,02,1076.40
2011,08,14,14,03,1065.00
2011,08,14,14,04,927.60
2011,08,14,14,05,543.00
2011,08,14,14,06,543.00
2011,08,14,14,07,729.40
2011,08,14,14,08,796.00
2011,08,14,14,09,712.80
2011,08,14,14,10,241.00
2011,08,14,14,11,535.80
2011,08,14,14,12,887.00
2011,08,14,14,13,881.00
2011,08,14,14,14,862.80
2011,08,14,14,15,856.00
2011,08,14,14,16,853.20
2011,08,14,14,17,840.70
2011,08,14,14,18,833.00
2011,08,14,14,19,833.00
2011,08,14,14,20,836.80
2011,08,14,14,21,840.00
2011,08,14,14,22,843.20
2011,08,14,14,23,843.30
2011,08,14,14,24,819.50
2011,08,14,14,25,811.60
2011,08,14,14,26,815.60
2011,08,14,14,27,816.00
2011,08,14,14,28,818.60
2011,08,14,14,29,811.50
2011,08,14,14,30,796.80
2011,08,14,14,31,813.50
2011,08,14,14,32,826.50
2011,08,14,14,33,861.00
2011,08,14,14,34,810.60
2011,08,14,14,35,718.50
2011,08,14,14,36,705.00
2011,08,14,14,37,705.00
2011,08,14,14,38,796.20
2011,08,14,14,39,729.60
2011,08,14,14,40,715.10
2011,08,14,14,41,718.20
2011,08,14,14,42,767.30
2011,08,14,14,43,793.70
2011,08,14,14,44,727.30
2011,08,14,14,45,775.10
2011,08,14,14,46,814.10
2011,08,14,14,47,780.80
2011,08,14,14,48,789.40
2011,08,14,14,49,811.80
2011,08,14,14,50,750.80
2011,08,14,14,51,707.00
2011,08,14,14,52,647.80
2011,08,14,14,53,606.00
2011,08,14,14,54,551.30
2011,08,14,14,55,497.30
2011,08,14,14,56,462.00
2011,08,14,14,57,462.00
2011,08,14,14,58,462.00
2011,08,14,14,59,462.00
2011,08,14,15,00,652.40
2011,08,14,15,01,700.00
2011,08,14,15,02,640.60
2011,08,14,15,03,414.40
2011,08,14,15,04,448.00
2011,08,14,15,05,517.90
2011,08,14,15,06,555.20
2011,08,14,15,07,560.40
2011,08,14,15,08,605.00
2011,08,14,15,09,537.80
2011,08,14,15,10,518.00
2011,08,14,15,11,516.40
2011,08,14,15,12,484.80
2011,08,14,15,13,482.90
2011,08,14,15,14,526.80
2011,08,14,15,15,457.00
2011,08,14,15,16,457.00
2011,08,14,15,17,457.00
2011,08,14,15,18,582.80
2011,08,14,15,19,696.00
2011,08,14,15,20,696.00
2011,08,14,15,21,696.00
2011,08,14,15,22,618.50
2011,08,14,15,23,551.30
2011,08,14,15,24,565.30
2011,08,14,15,25,499.50
2011,08,14,15,26,513.00
2011,08,14,15,27,513.00
2011,08,14,15,28,513.00
2011,08,14,15,29,513.00
2011,08,14,15,30,528.00
2011,08,14,15,31,811.90
2011,08,14,15,32,796.40
2011,08,14,15,33,788.00
2011,08,14,15,34,781.40
2011,08,14,15,35,779.20
2011,08,14,15,36,734.90
2011,08,14,15,37,746.80
2011,08,14,15,38,724.30
2011,08,14,15,39,749.00
2011,08,14,15,40,747.00
2011,08,14,15,41,563.80
2011,08,14,15,42,515.00
2011,08,14,15,43,537.50
2011,08,14,15,44,622.00
2011,08,14,15,45,622.00
2011,08,14,15,46,511.80
2011,08,14,15,47,494.60
2011,08,14,15,48,437.00
2011,08,14,15,49,395.50
2011,08,14,15,50,446.70
2011,08,14,15,51,496.00
2011,08,14,15,52,496.00
2011,08,14,15,53,667.80
2011,08,14,15,54,741.80
2011,08,14,15,55,748.60
2011,08,14,15,56,715.20
2011,08,14,15,57,700.50
2011,08,14,15,58,676.10
2011,08,14,15,59,690.50
2011,08,14,16,00,612.90
2011,08,14,16,01,558.90
2011,08,14,16,02,620.20
2011,08,14,16,03,630.40
2011,08,14,16,04,627.60
2011,08,14,16,05,645.70
2011,08,14,16,06,647.00
2011,08,14,16,07,647.00
2011,08,14,16,08,644.90
2011,08,14,16,09,624.00
2011,08,14,16,10,591.40
2011,08,14,16,11,579.00
2011,08,14,16,12,493.70
2011,08,14,16,13,549.90
2011,08,14,16,14,570.80
2011,08,14,16,15,578.20
2011,08,14,16,16,595.30
2011,08,14,16,17,583.70
2011,08,14,16,18,567.50
2011,08,14,16,19,478.70
2011,08,14,16,20,388.50
2011,08,14,16,21,359.00
2011,08,14,16,22,359.00
2011,08,14,16,23,600.20
2011,08,14,16,24,592.00
2011,08,14,16,25,502.80
2011,08,14,16,26,324.50
2011,08,14,16,27,299.00
2011,08,14,16,28,299.00
2011,08,14,16,29,314.20
2011,08,14,16,30,594.50
2011,08,14,16,31,608.60
2011,08,14,16,32,613.40
2011,08,14,16,33,642.00
2011,08,14,16,34,649.00
2011,08,14,16,35,571.10
2011,08,14,16,36,632.10
2011,08,14,16,37,621.20
2011,08,14,16,38,598.60
2011,08,14,16,39,565.90
2011,08,14,16,40,553.00
2011,08,14,16,41,565.00
2011,08,14,16,42,568.80
2011,08,14,16,43,526.20
2011,08,14,16,44,491.20
2011,08,14,16,45,512.90
2011,08,14,16,46,562.50
2011,08,14,16,47,590.70
2011,08,14,16,48,577.90
2011,08,14,16,49,554.00
2011,08,14,16,50,554.00
2011,08,14,16,51,489.60
2011,08,14,16,52,464.00
2011,08,14,16,53,506.00
2011,08,14,16,54,522.00
2011,08,14,16,55,467.10
2011,08,14,16,56,411.40
2011,08,14,16,57,481.30
2011,08,14,16,58,510.70
2011,08,14,16,59,532.20
2011,08,14,17,00,600.00
2011,08,14,17,01,561.50
2011,08,14,17,02,538.00
2011,08,14,17,03,510.20
2011,08,14,17,04,476.70
2011,08,14,17,05,402.20
2011,08,14,17,06,370.50
2011,08,14,17,07,326.50
2011,08,14,17,08,311.00
2011,08,14,17,09,322.60
2011,08,14,17,10,321.10
2011,08,14,17,11,354.30